User: anonymous   Login
Location: ?????? ??????
(44.3742°N, 135.2221°E)
Time: 20:45:23
(UTC+00:00)
Language:

IRIDIUM 106 - Orbit

View from above orbital plane
View from above orbital plane
View from above satellite
View from above satellite

Ground track
Ground track

The orbit data is extracted from the following two-line orbital elements,

1 41917U 17003A   25194.16002493  .00000022  00000-0  78937-6 0  9993
2 41917  86.3959 230.1487 0001724  87.8277 272.3116 14.34217682444611
Epoch (UTC): 13 July 2025 03:50:26
Eccentricity: 0.0001724
inclination: 86.3959°
perigee height: 776 km
apogee height: 779 km
right ascension of ascending node: 230.1487°
argument of perigee: 87.8277°
revolutions per day: 14.34217682
mean anomaly at epoch: 272.3116°
orbit number at epoch: 44461

The dashed part of the orbit path shows where the satellite is in the earth's shadow,  

DLR